QPF
0.00 0.00 0.00 0.00 0.00 0.01 0.02 0.01 0.01 0.01 0.01 0.01 0.01 0.02 0.01 0.01 0.03 0.08 0.04 0.01 0.00 0.05 0.13 0.03 0.01 0.01 0.00 0.00 0.01 0.01 0.01 0.01 0.02 0.01 0.01 0.01 0.01 0.02 0.02 0.03 0.03 0.04 0.05 0.05 0.05 0.04 0.04 0.06 0.06
0.00 0.00 0.00 0.00 0.00 0.03 0.03 0.01 0.01 0.02 0.02 0.01 0.01 0.01 0.01 0.01 0.01 0.01 0.01 0.00 0.00 0.02 0.08 0.05 0.02 0.01 0.01 0.01 0.02 0.02 0.02 0.02 0.02 0.02 0.02 0.01 0.02 0.02 0.03 0.03 0.03 0.03 0.04 0.06 0.06 0.06 0.06 0.07 0.06
0.01 0.00 0.00 0.01 0.01 0.03 0.03 0.01 0.01 0.01 0.00 0.01 0.01 0.01 0.02 0.01 0.01 0.00 0.00 0.00 0.00 0.01 0.02 0.03 0.03 0.02 0.01 0.02 0.03 0.02 0.02 0.02 0.02 0.02 0.02 0.01 0.01 0.02 0.02 0.03 0.03 0.03 0.04 0.05 0.05 0.05 0.05 0.04 0.05
0.01 0.00 0.00 0.01 0.01 0.02 0.03 0.03 0.02 0.02 0.01 0.00 0.01 0.01 0.02 0.01 0.00 0.00 0.00 0.00 0.00 0.00 0.01 0.02 0.02 0.02 0.01 0.01 0.02 0.02 0.02 0.02 0.03 0.03 0.03 0.02 0.02 0.02 0.03 0.03 0.03 0.04 0.04 0.05 0.05 0.06 0.05 0.05 0.05
0.00 0.00 0.01 0.01 0.01 0.01 0.02 0.04 0.01 0.01 0.01 0.01 0.01 0.01 0.01 0.01 0.00 0.01 0.01 0.01 0.01 0.01 0.00 0.01 0.01 0.01 0.01 0.01 0.01 0.02 0.02 0.03 0.03 0.03 0.03 0.03 0.03 0.03 0.03 0.03 0.04 0.04 0.04 0.04 0.04 0.05 0.06 0.06 0.05
0.00 0.00 0.03 0.02 0.01 0.01 0.01 0.01 0.02 0.01 0.01 0.02 0.02 0.01 0.01 0.00 0.00 0.01 0.01 0.01 0.01 0.01 0.01 0.00 0.01 0.01 0.01 0.02 0.02 0.02 0.03 0.03 0.03 0.03 0.03 0.03 0.03 0.03 0.03 0.03 0.04 0.04 0.05 0.05 0.05 0.06 0.06 0.06 0.06
0.01 0.02 0.04 0.02 0.01 0.01 0.01 0.01 0.01 0.02 0.05 0.05 0.02 0.02 0.01 0.01 0.00 0.01 0.01 0.01 0.01 0.02 0.02 0.01 0.01 0.01 0.01 0.02 0.03 0.03 0.02 0.02 0.01 0.02 0.02 0.02 0.02 0.03 0.04 0.03 0.04 0.04 0.04 0.05 0.04 0.05 0.05 0.06 0.06
0.02 0.04 0.02 0.01 0.01 0.03 0.02 0.02 0.02 0.02 0.03 0.03 0.02 0.03 0.03 0.01 0.01 0.01 0.02 0.02 0.02 0.04 0.06 0.03 0.01 0.02 0.02 0.02 0.02 0.02 0.02 0.01 0.01 0.01 0.01 0.01 0.01 0.02 0.03 0.04 0.04 0.03 0.03 0.03 0.03 0.04 0.05 0.05 0.06
0.01 0.04 0.03 0.01 0.01 0.04 0.04 0.03 0.01 0.01 0.01 0.01 0.01 0.02 0.03 0.02 0.01 0.01 0.02 0.03 0.05 0.08 0.06 0.04 0.03 0.02 0.02 0.02 0.02 0.02 0.01 0.01 0.01 0.01 0.01 0.01 0.02 0.03 0.05 0.04 0.06 0.06 0.05 0.03 0.03 0.03 0.05 0.07 0.07
0.00 0.03 0.02 0.00 0.01 0.03 0.03 0.03 0.02 0.01 0.01 0.01 0.01 0.02 0.02 0.01 0.02 0.02 0.02 0.04 0.09 0.09 0.05 0.05 0.03 0.04 0.03 0.03 0.04 0.04 0.02 0.02 0.01 0.02 0.02 0.03 0.04 0.05 0.05 0.06 0.06 0.06 0.06 0.04 0.04 0.04 0.04 0.06 0.06
0.01 0.01 0.01 0.01 0.01 0.01 0.01 0.01 0.02 0.02 0.01 0.01 0.01 0.01 0.01 0.01 0.02 0.03 0.03 0.04 0.06 0.07 0.06 0.04 0.05 0.04 0.04 0.05 0.05 0.05 0.04 0.04 0.02 0.02 0.04 0.04 0.04 0.05 0.06 0.07 0.06 0.06 0.06 0.07 0.07 0.06 0.05 0.06 0.06
0.00 0.00 0.01 0.01 0.00 0.00 0.01 0.03 0.03 0.02 0.01 0.01 0.01 0.01 0.01 0.01 0.02 0.03 0.02 0.01 0.03 0.07 0.05 0.05 0.05 0.06 0.06 0.06 0.05 0.04 0.03 0.04 0.03 0.04 0.04 0.04 0.05 0.05 0.05 0.06 0.06 0.05 0.06 0.07 0.07 0.06 0.06 0.08 0.08
0.00 0.00 0.00 0.00 0.00 0.01 0.02 0.03 0.03 0.02 0.01 0.02 0.02 0.02 0.02 0.01 0.02 0.02 0.02 0.02 0.02 0.03 0.03 0.04 0.04 0.05 0.07 0.06 0.05 0.05 0.05 0.04 0.04 0.05 0.04 0.05 0.05 0.07 0.07 0.06 0.05 0.04 0.04 0.04 0.05 0.05 0.05 0.05 0.06
0.00 0.00 0.00 0.00 0.00 0.01 0.02 0.01 0.01 0.02 0.02 0.02 0.03 0.02 0.02 0.02 0.02 0.02 0.02 0.02 0.01 0.02 0.02 0.03 0.03 0.04 0.06 0.07 0.06 0.06 0.04 0.05 0.05 0.05 0.05 0.05 0.06 0.07 0.06 0.06 0.05 0.05 0.03 0.03 0.04 0.05 0.05 0.04 0.04
0.00 0.00 0.01 0.01 0.01 0.01 0.00 0.01 0.01 0.01 0.02 0.02 0.02 0.02 0.03 0.05 0.06 0.03 0.02 0.02 0.02 0.02 0.02 0.03 0.03 0.03 0.06 0.07 0.05 0.05 0.05 0.05 0.06 0.07 0.07 0.05 0.05 0.06 0.07 0.07 0.05 0.05 0.04 0.04 0.04 0.05 0.06 0.05 0.04
0.00 0.00 0.01 0.02 0.01 0.01 0.01 0.02 0.02 0.01 0.01 0.01 0.01 0.01 0.02 0.05 0.07 0.04 0.03 0.02 0.02 0.02 0.03 0.02 0.03 0.03 0.04 0.07 0.08 0.06 0.05 0.05 0.05 0.05 0.06 0.06 0.07 0.06 0.07 0.07 0.06 0.06 0.05 0.05 0.05 0.06 0.07 0.08 0.07
0.00 0.01 0.01 0.02 0.01 0.01 0.02 0.03 0.02 0.02 0.01 0.01 0.03 0.02 0.02 0.03 0.03 0.02 0.02 0.02 0.02 0.02 0.02 0.03 0.04 0.04 0.05 0.07 0.07 0.06 0.05 0.05 0.04 0.04 0.05 0.05 0.08 0.09 0.09 0.08 0.07 0.07 0.05 0.05 0.05 0.06 0.08 0.08 0.09
0.02 0.02 0.01 0.01 0.01 0.01 0.01 0.02 0.03 0.03 0.01 0.01 0.02 0.03 0.02 0.01 0.02 0.02 0.01 0.02 0.03 0.03 0.03 0.04 0.04 0.04 0.05 0.06 0.06 0.06 0.05 0.05 0.04 0.04 0.05 0.05 0.05 0.06 0.10 0.10 0.09 0.08 0.07 0.06 0.06 0.06 0.07 0.09 0.09
0.04 0.04 0.03 0.02 0.02 0.01 0.01 0.02 0.03 0.03 0.02 0.01 0.02 0.02 0.02 0.02 0.02 0.02 0.02 0.03 0.04 0.04 0.04 0.05 0.04 0.04 0.04 0.05 0.06 0.06 0.05 0.04 0.04 0.04 0.04 0.05 0.05 0.04 0.05 0.05 0.08 0.09 0.08 0.08 0.07 0.07 0.07 0.08 0.09
0.04 0.02 0.03 0.04 0.03 0.02 0.01 0.02 0.04 0.03 0.04 0.02 0.01 0.02 0.02 0.03 0.04 0.06 0.07 0.07 0.05 0.05 0.05 0.05 0.05 0.05 0.05 0.07 0.08 0.06 0.05 0.05 0.05 0.05 0.05 0.05 0.05 0.05 0.04 0.05 0.05 0.07 0.08 0.08 0.07 0.07 0.06 0.05 0.07
0.02 0.01 0.01 0.02 0.03 0.01 0.01 0.04 0.08 0.05 0.03 0.02 0.01 0.02 0.04 0.05 0.06 0.08 0.09 0.09 0.06 0.05 0.05 0.05 0.05 0.04 0.04 0.05 0.10 0.09 0.08 0.07 0.06 0.07 0.07 0.07 0.05 0.04 0.04 0.05 0.06 0.06 0.06 0.07 0.08 0.09 0.08 0.07 0.06
0.01 0.01 0.00 0.01 0.03 0.03 0.02 0.06 0.07 0.09 0.06 0.04 0.02 0.02 0.05 0.06 0.06 0.09 0.08 0.07 0.08 0.06 0.05 0.05 0.05 0.05 0.04 0.05 0.07 0.10 0.10 0.08 0.06 0.06 0.07 0.07 0.05 0.04 0.04 0.05 0.07 0.09 0.07 0.08 0.07 0.07 0.08 0.07 0.07
0.00 0.00 0.00 0.00 0.01 0.02 0.02 0.05 0.06 0.06 0.09 0.06 0.02 0.01 0.01 0.03 0.03 0.05 0.07 0.07 0.07 0.08 0.08 0.07 0.04 0.04 0.05 0.05 0.06 0.07 0.07 0.07 0.06 0.06 0.06 0.07 0.07 0.06 0.06 0.07 0.08 0.09 0.09 0.09 0.07 0.07 0.07 0.07 0.06
0.00 0.00 0.00 0.00 0.01 0.04 0.03 0.06 0.08 0.07 0.06 0.04 0.01 0.00 0.00 0.01 0.01 0.03 0.03 0.04 0.05 0.05 0.07 0.11 0.08 0.05 0.04 0.05 0.06 0.07 0.07 0.07 0.06 0.07 0.08 0.06 0.07 0.06 0.06 0.06 0.08 0.09 0.08 0.09 0.08 0.07 0.07 0.07 0.07
0.00 0.01 0.02 0.03 0.05 0.06 0.03 0.05 0.07 0.03 0.01 0.01 0.01 0.01 0.01 0.01 0.01 0.04 0.04 0.04 0.04 0.03 0.05 0.06 0.06 0.06 0.05 0.06 0.09 0.09 0.08 0.07 0.07 0.08 0.09 0.07 0.07 0.07 0.05 0.05 0.06 0.08 0.09 0.09 0.08 0.08 0.08 0.08 0.07
0.00 0.01 0.03 0.05 0.06 0.05 0.04 0.04 0.05 0.03 0.00 0.00 0.01 0.01 0.02 0.03 0.02 0.02 0.03 0.04 0.04 0.03 0.04 0.05 0.04 0.06 0.07 0.06 0.07 0.09 0.08 0.06 0.06 0.08 0.09 0.08 0.07 0.10 0.10 0.06 0.05 0.06 0.07 0.07 0.08 0.08 0.09 0.09 0.09
0.00 0.00 0.01 0.03 0.04 0.05 0.06 0.05 0.04 0.02 0.01 0.01 0.01 0.02 0.05 0.05 0.03 0.02 0.02 0.02 0.03 0.03 0.04 0.06 0.05 0.06 0.06 0.05 0.06 0.07 0.07 0.07 0.06 0.07 0.08 0.07 0.07 0.07 0.09 0.09 0.07 0.06 0.05 0.07 0.09 0.09 0.09 0.08 0.08
0.00 0.00 0.01 0.03 0.04 0.05 0.05 0.06 0.05 0.05 0.04 0.03 0.02 0.02 0.04 0.07 0.04 0.03 0.03 0.02 0.02 0.02 0.02 0.03 0.05 0.06 0.06 0.05 0.05 0.06 0.06 0.06 0.07 0.08 0.07 0.06 0.06 0.05 0.06 0.08 0.09 0.07 0.06 0.06 0.08 0.09 0.08 0.07 0.07
0.00 0.01 0.01 0.02 0.03 0.03 0.05 0.06 0.04 0.04 0.03 0.02 0.02 0.01 0.01 0.02 0.02 0.02 0.02 0.02 0.02 0.01 0.02 0.02 0.03 0.03 0.03 0.04 0.04 0.07 0.06 0.05 0.06 0.06 0.06 0.05 0.04 0.04 0.05 0.06 0.07 0.07 0.07 0.07 0.08 0.07 0.06 0.06 0.06
0.00 0.00 0.02 0.03 0.03 0.03 0.04 0.05 0.02 0.02 0.02 0.02 0.02 0.02 0.01 0.01 0.01 0.01 0.01 0.02 0.02 0.02 0.02 0.02 0.02 0.01 0.01 0.02 0.02 0.03 0.02 0.03 0.03 0.03 0.03 0.03 0.03 0.03 0.04 0.04 0.04 0.05 0.06 0.06 0.06 0.06 0.06 0.06 0.07
MSLP
1007.38 1008.31 1009.36 1010.31 1010.94 1011.13 1010.81 1010.08 1009.11 1008.17 1007.52 1007.35 1007.75 1008.67 1009.95 1011.34 1012.59 1013.48 1013.90 1013.87 1013.48 1012.92 1012.35 1011.93 1011.73 1011.73 1011.86 1011.99 1012.04 1011.95 1011.71 1011.38 1011.04 1010.77 1010.64 1010.66 1010.80 1011.00 1011.20 1011.34 1011.40 1011.40 1011.36 1011.34 1011.37 1011.49 1011.67 1011.92 1012.18
1007.51 1008.54 1009.62 1010.53 1011.10 1011.19 1010.79 1010.00 1009.02 1008.09 1007.48 1007.36 1007.78 1008.69 1009.92 1011.24 1012.40 1013.21 1013.60 1013.57 1013.25 1012.80 1012.37 1012.09 1012.01 1012.10 1012.27 1012.41 1012.45 1012.32 1012.06 1011.71 1011.37 1011.12 1011.01 1011.04 1011.18 1011.37 1011.53 1011.62 1011.62 1011.57 1011.48 1011.43 1011.44 1011.54 1011.71 1011.93 1012.16
1007.70 1008.76 1009.81 1010.65 1011.12 1011.12 1010.66 1009.86 1008.92 1008.07 1007.53 1007.47 1007.90 1008.77 1009.89 1011.07 1012.08 1012.76 1013.07 1013.04 1012.78 1012.44 1012.17 1012.06 1012.13 1012.34 1012.58 1012.77 1012.81 1012.69 1012.42 1012.08 1011.76 1011.54 1011.44 1011.48 1011.61 1011.77 1011.89 1011.93 1011.89 1011.79 1011.69 1011.62 1011.62 1011.71 1011.87 1012.05 1012.24
1007.91 1008.91 1009.86 1010.57 1010.92 1010.84 1010.37 1009.62 1008.78 1008.07 1007.67 1007.70 1008.15 1008.96 1009.95 1010.94 1011.75 1012.27 1012.46 1012.39 1012.18 1011.96 1011.85 1011.92 1012.15 1012.49 1012.83 1013.07 1013.15 1013.05 1012.80 1012.49 1012.20 1011.99 1011.92 1011.96 1012.07 1012.19 1012.27 1012.27 1012.19 1012.07 1011.96 1011.90 1011.91 1012.00 1012.14 1012.29 1012.42
1008.03 1008.89 1009.67 1010.21 1010.43 1010.30 1009.86 1009.23 1008.58 1008.08 1007.88 1008.04 1008.55 1009.30 1010.16 1010.95 1011.55 1011.87 1011.93 1011.81 1011.63 1011.51 1011.54 1011.77 1012.16 1012.62 1013.05 1013.36 1013.48 1013.41 1013.19 1012.91 1012.64 1012.47 1012.40 1012.44 1012.53 1012.61 1012.64 1012.60 1012.50 1012.37 1012.27 1012.22 1012.25 1012.35 1012.47 1012.58 1012.64
1007.98 1008.63 1009.18 1009.53 1009.63 1009.48 1009.12 1008.68 1008.29 1008.07 1008.13 1008.47 1009.07 1009.80 1010.54 1011.16 1011.55 1011.69 1011.62 1011.45 1011.28 1011.23 1011.38 1011.73 1012.23 1012.79 1013.28 1013.63 1013.78 1013.74 1013.55 1013.30 1013.06 1012.91 1012.85 1012.87 1012.93 1012.97 1012.97 1012.89 1012.77 1012.64 1012.55 1012.52 1012.57 1012.67 1012.78 1012.85 1012.84
1007.71 1008.11 1008.42 1008.58 1008.58 1008.44 1008.23 1008.02 1007.93 1008.04 1008.38 1008.95 1009.66 1010.41 1011.08 1011.56 1011.79 1011.79 1011.61 1011.39 1011.23 1011.23 1011.44 1011.86 1012.42 1013.02 1013.53 1013.89 1014.04 1014.00 1013.84 1013.61 1013.41 1013.27 1013.22 1013.23 1013.26 1013.26 1013.21 1013.10 1012.95 1012.82 1012.74 1012.73 1012.79 1012.89 1012.98 1013.00 1012.93
1007.25 1007.40 1007.49 1007.49 1007.43 1007.35 1007.30 1007.36 1007.58 1008.01 1008.65 1009.43 1010.27 1011.06 1011.69 1012.08 1012.21 1012.12 1011.89 1011.64 1011.49 1011.51 1011.76 1012.20 1012.75 1013.32 1013.79 1014.11 1014.23 1014.18 1014.02 1013.81 1013.63 1013.52 1013.48 1013.48 1013.48 1013.45 1013.36 1013.22 1013.05 1012.91 1012.82 1012.82 1012.88 1012.97 1013.03 1013.01 1012.89
1006.70 1006.64 1006.56 1006.46 1006.39 1006.40 1006.53 1006.84 1007.35 1008.06 1008.94 1009.90 1010.85 1011.67 1012.29 1012.64 1012.72 1012.60 1012.36 1012.12 1011.99 1012.04 1012.28 1012.68 1013.18 1013.66 1014.05 1014.28 1014.34 1014.26 1014.09 1013.90 1013.75 1013.66 1013.64 1013.64 1013.64 1013.58 1013.46 1013.28 1013.09 1012.92 1012.82 1012.80 1012.84 1012.91 1012.95 1012.90 1012.73
1006.19 1006.00 1005.83 1005.71 1005.68 1005.81 1006.12 1006.64 1007.36 1008.27 1009.30 1010.36 1011.36 1012.19 1012.79 1013.13 1013.21 1013.11 1012.91 1012.72 1012.63 1012.69 1012.91 1013.26 1013.65 1014.01 1014.27 1014.39 1014.37 1014.24 1014.06 1013.89 1013.77 1013.72 1013.73 1013.76 1013.75 1013.69 1013.55 1013.34 1013.12 1012.92 1012.79 1012.73 1012.74 1012.78 1012.78 1012.71 1012.52
1005.86 1005.64 1005.47 1005.40 1005.47 1005.73 1006.19 1006.86 1007.72 1008.71 1009.78 1010.84 1011.80 1012.59 1013.15 1013.48 1013.59 1013.54 1013.42 1013.31 1013.28 1013.37 1013.56 1013.83 1014.11 1014.33 1014.45 1014.45 1014.34 1014.17 1013.98 1013.83 1013.76 1013.76 1013.81 1013.87 1013.89 1013.82 1013.68 1013.45 1013.20 1012.97 1012.79 1012.69 1012.65 1012.64 1012.62 1012.52 1012.33
1005.81 1005.65 1005.57 1005.62 1005.83 1006.22 1006.80 1007.55 1008.43 1009.41 1010.40 1011.34 1012.18 1012.86 1013.35 1013.66 1013.80 1013.82 1013.80 1013.80 1013.84 1013.96 1014.14 1014.33 1014.50 1014.60 1014.60 1014.49 1014.31 1014.11 1013.92 1013.80 1013.78 1013.83 1013.93 1014.03 1014.07 1014.03 1013.88 1013.65 1013.38 1013.11 1012.89 1012.74 1012.65 1012.59 1012.52 1012.41 1012.21
1006.05 1006.03 1006.10 1006.31 1006.67 1007.19 1007.85 1008.62 1009.45 1010.30 1011.12 1011.87 1012.52 1013.04 1013.42 1013.68 1013.84 1013.95 1014.03 1014.12 1014.25 1014.40 1014.57 1014.72 1014.81 1014.81 1014.72 1014.54 1014.32 1014.11 1013.94 1013.86 1013.87 1013.97 1014.11 1014.25 1014.32 1014.29 1014.16 1013.94 1013.66 1013.37 1013.11 1012.91 1012.77 1012.66 1012.55 1012.41 1012.22
1006.52 1006.66 1006.91 1007.29 1007.81 1008.44 1009.14 1009.88 1010.61 1011.28 1011.88 1012.40 1012.81 1013.14 1013.40 1013.60 1013.77 1013.93 1014.10 1014.28 1014.48 1014.68 1014.85 1014.97 1015.02 1014.97 1014.83 1014.63 1014.41 1014.21 1014.07 1014.02 1014.07 1014.20 1014.36 1014.51 1014.60 1014.59 1014.48 1014.27 1014.00 1013.71 1013.43 1013.19 1013.00 1012.85 1012.70 1012.55 1012.35
1007.08 1007.36 1007.77 1008.31 1008.95 1009.67 1010.40 1011.09 1011.69 1012.19 1012.57 1012.85 1013.05 1013.20 1013.34 1013.48 1013.65 1013.84 1014.07 1014.32 1014.56 1014.79 1014.98 1015.09 1015.12 1015.07 1014.94 1014.76 1014.57 1014.41 1014.30 1014.28 1014.35 1014.47 1014.63 1014.77 1014.86 1014.86 1014.76 1014.58 1014.33 1014.06 1013.78 1013.54 1013.32 1013.13 1012.96 1012.78 1012.58
1007.55 1007.94 1008.46 1009.11 1009.85 1010.62 1011.36 1012.00 1012.50 1012.85 1013.05 1013.15 1013.19 1013.21 1013.26 1013.36 1013.52 1013.74 1013.99 1014.27 1014.54 1014.78 1014.97 1015.09 1015.13 1015.11 1015.03 1014.91 1014.78 1014.67 1014.61 1014.60 1014.65 1014.75 1014.86 1014.97 1015.03 1015.02 1014.95 1014.80 1014.60 1014.36 1014.12 1013.89 1013.67 1013.47 1013.27 1013.07 1012.87
1007.83 1008.25 1008.82 1009.53 1010.32 1011.13 1011.86 1012.47 1012.91 1013.16 1013.26 1013.26 1013.21 1013.17 1013.18 1013.26 1013.42 1013.65 1013.91 1014.19 1014.45 1014.68 1014.86 1014.99 1015.06 1015.08 1015.07 1015.04 1014.99 1014.95 1014.92 1014.92 1014.94 1014.97 1015.02 1015.05 1015.07 1015.05 1014.99 1014.88 1014.74 1014.57 1014.39 1014.20 1014.01 1013.81 1013.61 1013.40 1013.18
1007.87 1008.26 1008.83 1009.54 1010.34 1011.15 1011.88 1012.47 1012.87 1013.09 1013.16 1013.14 1013.08 1013.05 1013.08 1013.18 1013.36 1013.59 1013.84 1014.09 1014.32 1014.51 1014.67 1014.79 1014.89 1014.98 1015.05 1015.11 1015.15 1015.18 1015.18 1015.17 1015.14 1015.10 1015.06 1015.02 1014.97 1014.93 1014.88 1014.83 1014.77 1014.69 1014.59 1014.46 1014.31 1014.14 1013.95 1013.73 1013.51
1007.72 1008.05 1008.56 1009.24 1010.01 1010.80 1011.51 1012.09 1012.49 1012.72 1012.81 1012.83 1012.83 1012.85 1012.94 1013.10 1013.31 1013.54 1013.78 1013.99 1014.16 1014.30 1014.41 1014.53 1014.65 1014.79 1014.94 1015.09 1015.23 1015.32 1015.36 1015.34 1015.26 1015.14 1015.01 1014.89 1014.78 1014.72 1014.69 1014.69 1014.71 1014.72 1014.72 1014.68 1014.59 1014.46 1014.29 1014.08 1013.86
1007.50 1007.75 1008.20 1008.83 1009.55 1010.29 1010.97 1011.53 1011.93 1012.18 1012.31 1012.40 1012.47 1012.59 1012.76 1012.98 1013.23 1013.48 1013.70 1013.86 1013.98 1014.06 1014.13 1014.22 1014.35 1014.53 1014.75 1014.99 1015.20 1015.36 1015.43 1015.41 1015.29 1015.12 1014.91 1014.72 1014.57 1014.48 1014.47 1014.52 1014.62 1014.73 1014.82 1014.86 1014.85 1014.77 1014.63 1014.44 1014.23
1007.36 1007.56 1007.96 1008.53 1009.20 1009.89 1010.52 1011.03 1011.40 1011.65 1011.81 1011.94 1012.08 1012.27 1012.52 1012.81 1013.11 1013.38 1013.59 1013.72 1013.79 1013.81 1013.84 1013.90 1014.03 1014.24 1014.51 1014.81 1015.08 1015.30 1015.41 1015.40 1015.27 1015.06 1014.82 1014.58 1014.39 1014.30 1014.30 1014.40 1014.56 1014.74 1014.91 1015.03 1015.08 1015.05 1014.94 1014.78 1014.59
1007.42 1007.62 1008.01 1008.55 1009.17 1009.80 1010.35 1010.79 1011.10 1011.30 1011.43 1011.56 1011.72 1011.95 1012.24 1012.58 1012.92 1013.21 1013.43 1013.56 1013.60 1013.59 1013.58 1013.62 1013.74 1013.95 1014.24 1014.58 1014.90 1015.17 1015.32 1015.34 1015.23 1015.03 1014.77 1014.51 1014.32 1014.22 1014.23 1014.34 1014.54 1014.77 1014.99 1015.16 1015.26 1015.27 1015.21 1015.08 1014.92
1007.72 1007.97 1008.39 1008.94 1009.53 1010.09 1010.56 1010.90 1011.11 1011.20 1011.25 1011.32 1011.44 1011.65 1011.95 1012.31 1012.68 1013.01 1013.25 1013.38 1013.43 1013.41 1013.38 1013.39 1013.49 1013.69 1013.98 1014.33 1014.69 1014.99 1015.19 1015.26 1015.19 1015.02 1014.78 1014.54 1014.35 1014.24 1014.25 1014.36 1014.55 1014.79 1015.02 1015.21 1015.34 1015.38 1015.35 1015.27 1015.14
1008.24 1008.58 1009.06 1009.64 1010.22 1010.73 1011.12 1011.34 1011.41 1011.37 1011.28 1011.23 1011.26 1011.41 1011.67 1012.02 1012.41 1012.77 1013.05 1013.22 1013.29 1013.29 1013.26 1013.25 1013.32 1013.49 1013.76 1014.09 1014.45 1014.78 1015.02 1015.14 1015.13 1015.02 1014.83 1014.63 1014.45 1014.34 1014.32 1014.40 1014.56 1014.76 1014.97 1015.15 1015.27 1015.34 1015.34 1015.30 1015.23
1008.87 1009.31 1009.88 1010.50 1011.08 1011.55 1011.86 1011.96 1011.90 1011.70 1011.46 1011.26 1011.17 1011.22 1011.42 1011.74 1012.13 1012.52 1012.85 1013.08 1013.20 1013.23 1013.21 1013.19 1013.23 1013.35 1013.56 1013.86 1014.20 1014.52 1014.79 1014.97 1015.03 1014.99 1014.87 1014.71 1014.56 1014.44 1014.39 1014.42 1014.51 1014.64 1014.79 1014.93 1015.04 1015.12 1015.15 1015.15 1015.14
1009.50 1010.02 1010.65 1011.31 1011.90 1012.34 1012.58 1012.59 1012.41 1012.07 1011.69 1011.35 1011.13 1011.07 1011.20 1011.49 1011.88 1012.30 1012.69 1012.98 1013.16 1013.23 1013.23 1013.19 1013.19 1013.25 1013.39 1013.62 1013.91 1014.21 1014.50 1014.72 1014.85 1014.89 1014.84 1014.73 1014.60 1014.48 1014.39 1014.35 1014.36 1014.41 1014.49 1014.58 1014.66 1014.74 1014.80 1014.86 1014.91
1010.02 1010.57 1011.22 1011.88 1012.46 1012.89 1013.08 1013.04 1012.77 1012.35 1011.87 1011.42 1011.10 1010.96 1011.03 1011.29 1011.67 1012.12 1012.56 1012.91 1013.15 1013.26 1013.28 1013.23 1013.17 1013.16 1013.22 1013.36 1013.58 1013.84 1014.12 1014.37 1014.56 1014.67 1014.69 1014.64 1014.55 1014.42 1014.30 1014.20 1014.13 1014.10 1014.10 1014.14 1014.20 1014.28 1014.38 1014.48 1014.59
1010.37 1010.88 1011.49 1012.11 1012.66 1013.06 1013.23 1013.16 1012.87 1012.42 1011.90 1011.42 1011.05 1010.87 1010.90 1011.13 1011.53 1012.00 1012.47 1012.87 1013.16 1013.31 1013.33 1013.26 1013.16 1013.06 1013.02 1013.07 1013.21 1013.42 1013.67 1013.93 1014.16 1014.33 1014.42 1014.43 1014.37 1014.25 1014.11 1013.96 1013.84 1013.75 1013.70 1013.70 1013.75 1013.84 1013.97 1014.12 1014.28
1010.56 1010.95 1011.45 1011.98 1012.46 1012.81 1012.97 1012.92 1012.66 1012.24 1011.76 1011.30 1010.95 1010.78 1010.81 1011.04 1011.43 1011.92 1012.41 1012.85 1013.16 1013.33 1013.36 1013.27 1013.12 1012.95 1012.82 1012.78 1012.82 1012.97 1013.18 1013.43 1013.68 1013.89 1014.04 1014.10 1014.09 1014.00 1013.86 1013.71 1013.55 1013.43 1013.36 1013.35 1013.40 1013.51 1013.67 1013.86 1014.06
1010.64 1010.85 1011.17 1011.56 1011.93 1012.22 1012.37 1012.35 1012.16 1011.84 1011.46 1011.09 1010.81 1010.68 1010.75 1010.99 1011.39 1011.88 1012.38 1012.82 1013.15 1013.33 1013.35 1013.25 1013.05 1012.82 1012.62 1012.49 1012.46 1012.53 1012.70 1012.93 1013.18 1013.42 1013.61 1013.72 1013.75 1013.71 1013.60 1013.46 1013.32 1013.21 1013.14 1013.14 1013.21 1013.35 1013.53 1013.75 1013.97
Thickness
5818 5822 5823 5818 5801 5791 5792 5810 5826 5822 5823 5829 5830 5823 5812 5803 5793 5779 5809 5821 5819 5811 5804 5798 5795 5792 5790 5787 5784 5782 5780 5778 5776 5774 5771 5769 5768 5766 5764 5762 5760 5758 5756 5755 5753 5751 5750 5749 5748
5822 5826 5820 5810 5792 5780 5794 5818 5821 5821 5826 5833 5831 5824 5812 5805 5810 5808 5813 5818 5818 5811 5804 5797 5792 5789 5787 5784 5781 5779 5777 5775 5772 5770 5768 5766 5764 5763 5761 5759 5757 5755 5753 5751 5750 5748 5747 5746 5745
5821 5825 5810 5801 5792 5790 5799 5819 5823 5828 5833 5830 5823 5820 5810 5801 5808 5809 5815 5819 5817 5811 5802 5795 5789 5786 5783 5781 5778 5775 5773 5771 5769 5767 5765 5763 5761 5759 5757 5755 5753 5752 5750 5748 5747 5746 5744 5743 5742
5820 5818 5809 5797 5793 5808 5813 5821 5825 5824 5827 5830 5823 5810 5808 5813 5813 5814 5818 5819 5813 5808 5800 5792 5787 5783 5780 5777 5775 5772 5769 5767 5765 5763 5761 5759 5758 5755 5753 5752 5750 5748 5746 5745 5744 5742 5741 5740 5739
5820 5808 5795 5793 5801 5817 5825 5826 5824 5818 5818 5820 5817 5802 5797 5811 5818 5818 5817 5815 5810 5804 5798 5789 5784 5781 5777 5774 5771 5769 5766 5763 5761 5759 5758 5756 5754 5752 5750 5748 5746 5744 5743 5741 5740 5739 5738 5737 5737
5809 5806 5788 5786 5804 5820 5825 5829 5825 5819 5816 5817 5813 5800 5794 5809 5810 5812 5814 5812 5809 5803 5795 5787 5781 5778 5775 5772 5769 5765 5762 5760 5758 5756 5754 5752 5750 5748 5746 5744 5743 5741 5740 5738 5737 5736 5735 5734 5733
5800 5796 5792 5798 5804 5811 5819 5829 5820 5814 5809 5811 5814 5797 5793 5801 5806 5809 5809 5807 5803 5798 5792 5786 5780 5775 5772 5769 5766 5762 5759 5757 5755 5753 5751 5749 5747 5745 5743 5741 5739 5738 5736 5735 5733 5732 5732 5731 5730
5814 5799 5794 5801 5805 5804 5820 5824 5822 5815 5808 5818 5815 5795 5786 5796 5805 5805 5802 5800 5796 5792 5787 5782 5780 5774 5770 5766 5762 5759 5757 5754 5752 5750 5748 5745 5744 5742 5740 5738 5736 5734 5733 5732 5730 5729 5728 5728 5728
5818 5791 5786 5799 5804 5805 5819 5816 5819 5823 5814 5812 5810 5803 5799 5802 5802 5797 5793 5790 5787 5783 5780 5778 5776 5773 5769 5766 5761 5757 5754 5751 5749 5747 5745 5743 5741 5740 5737 5736 5734 5731 5730 5729 5728 5727 5726 5726 5726
5812 5789 5795 5813 5818 5814 5815 5813 5815 5812 5803 5799 5798 5800 5802 5799 5794 5788 5784 5779 5777 5775 5775 5774 5772 5769 5766 5763 5758 5754 5752 5748 5746 5745 5742 5740 5739 5737 5736 5734 5731 5729 5727 5726 5725 5724 5724 5723 5723
5813 5801 5811 5818 5822 5821 5814 5812 5815 5805 5792 5794 5791 5792 5793 5791 5787 5783 5780 5777 5774 5773 5771 5771 5768 5765 5762 5758 5755 5751 5749 5746 5744 5742 5739 5737 5736 5734 5732 5730 5728 5726 5724 5723 5723 5722 5722 5723 5723
5813 5815 5819 5818 5823 5819 5813 5808 5803 5799 5797 5804 5801 5796 5791 5785 5781 5779 5776 5774 5771 5767 5766 5767 5764 5760 5756 5753 5750 5748 5746 5743 5741 5738 5735 5733 5732 5730 5728 5726 5725 5724 5723 5722 5722 5721 5721 5721 5721
5811 5816 5822 5822 5822 5819 5814 5806 5800 5796 5803 5804 5798 5792 5786 5783 5779 5777 5775 5773 5769 5764 5763 5762 5760 5755 5752 5749 5746 5744 5742 5740 5738 5735 5732 5729 5727 5725 5723 5721 5720 5720 5719 5719 5719 5718 5719 5719 5719
5817 5819 5819 5819 5817 5815 5806 5803 5799 5795 5802 5798 5792 5787 5785 5781 5777 5773 5770 5767 5764 5761 5759 5757 5755 5752 5748 5745 5742 5740 5738 5736 5734 5731 5729 5726 5723 5720 5719 5717 5715 5714 5715 5715 5715 5715 5715 5715 5715
5822 5811 5809 5812 5813 5811 5805 5790 5791 5797 5798 5791 5788 5785 5782 5779 5775 5770 5767 5763 5760 5757 5755 5752 5751 5749 5744 5741 5739 5737 5734 5732 5730 5727 5725 5722 5719 5717 5714 5712 5710 5710 5710 5711 5711 5711 5711 5711 5711
5811 5799 5789 5805 5810 5811 5796 5772 5788 5797 5790 5783 5783 5781 5776 5773 5770 5769 5766 5761 5758 5754 5750 5748 5747 5743 5740 5737 5735 5733 5730 5728 5726 5724 5721 5718 5715 5712 5710 5708 5706 5706 5706 5706 5706 5706 5706 5705 5705
5794 5784 5787 5798 5809 5806 5792 5776 5785 5791 5785 5779 5778 5776 5773 5768 5766 5765 5763 5758 5754 5750 5746 5742 5740 5737 5735 5731 5729 5727 5725 5722 5721 5719 5717 5713 5710 5708 5705 5703 5702 5701 5701 5701 5702 5702 5701 5699 5699
5779 5784 5787 5791 5800 5797 5786 5780 5784 5786 5785 5780 5777 5773 5770 5765 5762 5762 5759 5755 5749 5745 5741 5738 5735 5732 5729 5727 5724 5721 5719 5717 5716 5714 5711 5709 5706 5704 5701 5699 5698 5696 5696 5695 5696 5696 5697 5696 5695
5792 5788 5785 5793 5802 5792 5786 5782 5780 5786 5783 5778 5774 5771 5766 5762 5762 5759 5754 5750 5744 5739 5736 5732 5728 5726 5724 5720 5716 5713 5711 5710 5710 5709 5707 5704 5702 5699 5697 5696 5694 5692 5691 5691 5692 5691 5691 5691 5691
5792 5783 5785 5793 5803 5793 5783 5780 5785 5783 5780 5779 5774 5768 5763 5759 5755 5750 5748 5744 5739 5735 5731 5727 5723 5721 5718 5715 5713 5710 5707 5706 5706 5705 5702 5700 5698 5696 5695 5692 5690 5689 5688 5687 5687 5687 5685 5686 5687
5789 5786 5786 5785 5790 5793 5780 5768 5771 5778 5778 5776 5774 5769 5763 5757 5750 5745 5741 5737 5734 5730 5727 5724 5719 5717 5714 5712 5709 5706 5703 5701 5700 5699 5697 5697 5695 5694 5692 5690 5688 5686 5685 5683 5684 5683 5682 5680 5682
5781 5796 5794 5787 5776 5770 5774 5747 5758 5764 5763 5764 5765 5764 5761 5756 5750 5744 5738 5733 5730 5728 5725 5721 5716 5713 5711 5708 5704 5700 5696 5694 5694 5694 5693 5693 5693 5692 5690 5688 5686 5685 5683 5682 5682 5682 5680 5678 5676
5792 5805 5797 5789 5780 5771 5772 5752 5749 5759 5749 5754 5760 5761 5759 5755 5749 5742 5737 5732 5729 5727 5722 5717 5712 5709 5707 5705 5702 5698 5694 5693 5693 5692 5691 5690 5690 5690 5689 5687 5685 5683 5681 5680 5679 5678 5677 5676 5674
5807 5802 5796 5791 5779 5753 5763 5751 5740 5752 5752 5753 5757 5759 5756 5752 5747 5741 5737 5732 5727 5723 5719 5712 5708 5705 5703 5701 5698 5695 5692 5690 5689 5687 5687 5687 5687 5687 5687 5686 5683 5681 5679 5678 5677 5676 5674 5673 5671
5798 5777 5758 5751 5745 5747 5765 5753 5741 5760 5762 5758 5755 5755 5753 5749 5744 5737 5731 5726 5722 5717 5714 5709 5705 5702 5700 5697 5695 5693 5691 5689 5686 5685 5684 5683 5683 5683 5683 5684 5681 5679 5677 5676 5675 5673 5672 5670 5668
5785 5775 5747 5729 5733 5747 5758 5747 5752 5768 5768 5765 5761 5756 5751 5744 5740 5734 5729 5723 5717 5713 5710 5706 5702 5698 5696 5694 5692 5691 5689 5687 5685 5684 5683 5682 5682 5682 5681 5680 5678 5677 5675 5674 5672 5670 5670 5668 5666
5778 5775 5780 5757 5749 5743 5744 5743 5751 5760 5758 5755 5754 5750 5744 5740 5735 5731 5726 5721 5715 5710 5706 5703 5698 5695 5693 5692 5689 5687 5685 5684 5683 5682 5681 5680 5680 5680 5679 5677 5675 5674 5672 5670 5668 5666 5666 5665 5663
5791 5783 5769 5751 5733 5728 5736 5734 5731 5739 5740 5744 5745 5743 5741 5736 5731 5727 5723 5717 5712 5707 5703 5700 5696 5693 5691 5689 5687 5685 5683 5682 5682 5680 5679 5678 5678 5677 5676 5674 5672 5670 5669 5667 5665 5663 5662 5661 5660
5779 5775 5768 5758 5753 5734 5723 5724 5747 5742 5744 5744 5743 5742 5739 5733 5728 5723 5719 5715 5711 5706 5701 5697 5693 5690 5688 5686 5685 5683 5681 5680 5679 5678 5677 5677 5676 5674 5673 5671 5669 5667 5665 5663 5660 5659 5659 5657 5656
5783 5774 5764 5740 5737 5742 5730 5721 5752 5749 5748 5746 5742 5739 5736 5731 5727 5722 5716 5711 5707 5703 5699 5695 5692 5689 5687 5685 5683 5681 5680 5678 5677 5676 5675 5675 5673 5672 5670 5669 5666 5664 5662 5660 5657 5655 5655 5653 5652